sat.trackr.live / text

‹ back to catalog

ZHUHAI-1 OHS-02

NORAD 43441 · 2018-040C

PAYLOAD ACTIVE UNKNOWN

§ Identity

Operator
Country
PRC
Launch date
2018-04-26
Launch site
JSC
Launch vehicle
Mass (kg)
RCS (m²)

External: N2YO · Heavens-Above · Gunter

§ Orbital elements

Epoch: 2026-09-09T04:37:01.277760Z

Period
94.31 min
Inclination
97.0348°
Eccentricity
0.0007209
Mean motion
15.26906805 rev/d
Perigee alt
480.1 km
Apogee alt
490.0 km
Semi-major
6,863.2 km
B*
2.3572e-4
RAAN
271.5100°
Arg perigee
297.7622°
Mean anomaly
62.2887°
Rev number
12,709

§ Raw data

ZHUHAI-1 OHS-021 43441U 18040C   26252.19237590  .00006165  00000+0  23572-3 0  99912 43441  97.0348 271.5100 0007209 297.7622  62.2887 15.26906805127092

JSON: /api/v1/satellites/43441 · /tle

For live sub-satellite position, see the globe view (requires WebGL).

§ Visibility from observer

Set your observer location to see the next 7 days of passes ≥ 10°. The values pass through the URL so the page stays shareable.

No JS? Fill the form by hand. The geolocation button needs JavaScript.

§ Radio — SatNOGS DB

ModeDescriptionDownlinkUplink
FSK Downlink 401.560 MHz
BPSK Telemetry 2.254 GHz

2 transmitters · refreshed weekly from db.satnogs.org